Moron de la Frontera, Spain

3:48 PM CET on February 19, 2017 (GMT +0100)
Moron Air Base

Weather History for LEMO - November, 2012

Change the Weather History Date:

Saturday, November 10, 2012

  Actual Average Record
Temperature  
Mean Temperature 56 °F -  
Max Temperature 64 °F 63 °F 79 °F (2015)
Min Temperature 48 °F 45 °F 39 °F (2001)
Degree Days  
Heating Degree Days 9    
Growing Degree Days 6 (Base 50)    
Moisture  
Dew Point 54 °F    
Average Humidity 92    
Maximum Humidity 100    
Minimum Humidity 73    
Precipitation  
Precipitation 0.00 in - - ()
Sea Level Pressure  
Sea Level Pressure 29.95 in    
Wind  
Wind Speed 4 mph ()    
Max Wind Speed 12 mph    
Max Gust Speed -    
Visibility 4.9 miles    
Events Fog , Rain    
Averages and records for this station are not official NWS values.
T = Trace of Precipitation, MM = Missing Value Source: Averaged Metar Reports

Daily Weather History Graph

Daily Weather History Graph

Search for Another Location

Airport or City:

Trip Planner

Search our weather history database for the weather conditions in past years. The results will help you decide how hot, cold, wet, or windy it might be!

Date:

Astronomy

Nov. 10, 2012 Rise Set
Actual Time 7:56 AM CET 6:16 PM CET
Civil Twilight 7:28 AM CET 6:43 PM CET
Nautical Twilight 6:57 AM CET 7:14 PM CET
Astronomical Twilight 6:27 AM CET 7:45 PM CET
Moon 3:50 AM CET (11/10) 3:50 PM CET (11/10)
Length of Visible Light 11h 14m
Length of Day
10h 19m
Waning Crescent, 16% of the Moon is Illuminated
Nov 10
Waning Crescent
Nov 13
New
Nov 20
First Quarter
Nov 28
Full
Dec 6
Last Quarter

Hourly Weather History & Observations

Time (CET) Temp. Dew Point Humidity Pressure Visibility Wind Dir Wind Speed Gust Speed Precip Events Conditions
12:00 AM 53.6 °F 51.8 °F 94% 29.95 in 6.2 mi South 2.3 mph - N/A   Partly Cloudy
1:00 AM 53.6 °F 51.8 °F 94% 29.95 in 6.2 mi SSE 3.5 mph - N/A   Partly Cloudy
2:00 AM 55.4 °F 53.6 °F 94% 29.95 in 6.2 mi South 5.8 mph - N/A   Partly Cloudy
3:00 AM 53.6 °F 51.8 °F 94% 29.92 in 6.2 mi South 1.2 mph - N/A   Partly Cloudy
4:00 AM 53.6 °F 51.8 °F 94% 29.92 in 6.2 mi Variable 2.3 mph - N/A   Partly Cloudy
5:00 AM 51.8 °F 51.8 °F 100% 29.92 in 6.2 mi ESE 4.6 mph - N/A   Partly Cloudy
6:00 AM 51.8 °F 51.8 °F 100% 29.92 in 6.2 mi ESE 2.3 mph - N/A   Partly Cloudy
7:00 AM 50.0 °F 50.0 °F 100% 29.95 in 3.7 mi Calm Calm - N/A   Partly Cloudy
7:30 AM 50.0 °F 50.0 °F 100% 29.95 in 1.2 mi Calm Calm - N/A   Partly Cloudy
8:00 AM 48.2 °F 48.2 °F 100% 29.95 in 0.3 mi Calm Calm - N/A Fog Fog
9:00 AM 51.8 °F 51.8 °F 100% 29.95 in 3.1 mi SSE 2.3 mph - N/A   Mist
10:00 AM 57.2 °F 57.2 °F 100% 29.98 in 5.0 mi Variable 3.5 mph - N/A   Unknown
10:30 AM 59.0 °F 57.2 °F 94% 29.98 in 3.1 mi West 5.8 mph - N/A   Mostly Cloudy
11:00 AM 57.2 °F 57.2 °F 100% 29.98 in 3.1 mi North 4.6 mph - N/A   Mostly Cloudy
11:10 AM 57.2 °F 55.4 °F 94% 29.98 in 3.1 mi North 4.6 mph - N/A Fog Mostly Cloudy
12:00 PM 57.2 °F 57.2 °F 100% 29.98 in 3.1 mi Calm Calm - N/A Fog Mostly Cloudy
12:20 PM 59.0 °F 57.2 °F 94% 29.98 in 3.1 mi Variable 3.5 mph - N/A   Mostly Cloudy
1:00 PM 60.8 °F 57.2 °F 88% 29.98 in 5.0 mi Calm Calm - N/A   Mostly Cloudy
2:00 PM 62.6 °F 55.4 °F 77% 29.95 in 6.2 mi West 6.9 mph - N/A   Scattered Clouds
3:00 PM 64.4 °F 55.4 °F 73% 29.92 in 6.2 mi West 8.1 mph - N/A   Scattered Clouds
4:00 PM 62.6 °F 55.4 °F 77% 29.92 in 6.2 mi WSW 8.1 mph - N/A   Scattered Clouds
5:00 PM 64.4 °F 55.4 °F 73% 29.92 in 6.2 mi West 11.5 mph - N/A   Mostly Cloudy
6:00 PM 60.8 °F 55.4 °F 82% 29.95 in 6.2 mi West 9.2 mph - N/A   Mostly Cloudy
7:00 PM 60.8 °F 55.4 °F 82% 29.95 in 6.2 mi WSW 8.1 mph - N/A   Mostly Cloudy
7:15 PM 60.8 °F 55.4 °F 82% 29.95 in 3.7 mi WSW 6.9 mph - N/A Rain Rain
8:00 PM 59.0 °F 57.2 °F 94% 29.95 in 6.2 mi SW 6.9 mph - N/A   Mostly Cloudy
9:00 PM 59.0 °F 57.2 °F 94% 29.95 in 6.2 mi SW 8.1 mph - N/A Rain Light Rain
10:00 PM 59.0 °F 57.2 °F 94% 29.95 in 6.2 mi SW 8.1 mph - N/A   Mostly Cloudy
11:00 PM 59.0 °F 57.2 °F 94% 29.95 in 6.2 mi WSW 8.1 mph - N/A   Mostly Cloudy